Regional Weather Roundup
Issued by NWS

Home | Current Version | Previous Version | Graphics & Text | Print | Product List | Glossary On
Versions: 1 2 3 4 5 6 7 8 9 10 11 12 13 14 15 16 17 18 19 20 21 22 23 24 25 26 27 28 29 30 31 32 33 34 35 36 37 38 39 40 41 42 43 44 45 46 47 48 49
000
ASUS45 KCYS 270310
RWRWY

WYOMING REGIONAL WEATHER ROUNDUP
NATIONAL WEATHER SERVICE CHEYENNE WY
800 PM MST FRI DEC 26 2014

NOTE:  "FAIR" INDICATES FEW OR NO CLOUDS BELOW 12,000 FEET
WITH NO SIGNIFICANT WEATHER AND/OR OBSTRUCTIONS TO VISIBILITY.

WYZ001-270400-
YELLOWSTONE NATIONAL PARK

CITY           SKY/WX    TMP DP  RH WIND       PRES   REMARKS
LK YELLOWSTONE   N/A      9   3  77 NW6       29.99S WCI  -1
W YELLOWSTONE  NOT AVBL

$$
WYZ002>013-054>058-071-098>099-270400-
NORTHERN WYOMING

CITY           SKY/WX    TMP DP  RH WIND       PRES   REMARKS
JACKSON        CLOUDY    16  10  79 CALM      30.03R
CODY           CLOUDY    18  16  93 CALM      30.06S
GREYBULL       CLOUDY    10   9  95 CALM      30.14R
WORLAND        MOCLDY     4   2  91 S3        30.12R
SHERIDAN       CLOUDY    21  13  71 NW12      30.09S WCI   9
BUFFALO        CLOUDY    19  12  74 N8        30.04S WCI   9
GILLETTE       FAIR      11   7  84 SW7       30.06S WCI   0
HULETT           N/A    N/A N/A N/A MISG        N/A
NEWCASTLE      FAIR      14  10  85 N7        30.08S WCI   4

$$
WYZ014>020-022>026-101>103-270400-
CENTRAL WYOMING

CITY           SKY/WX    TMP DP  RH WIND       PRES   REMARKS
BIG PINEY      CLOUDY     8   4  83 CALM      30.01R
PINEDALE       LGT SNOW   1   0  92 W5        30.01R WCI  -8
DUBOIS         NOT AVBL
LANDER         CLOUDY    15   9  76 SW5       30.05R WCI   8
RIVERTON       CLOUDY    13  10  88 W6        30.06R WCI   4
CASPER         CLOUDY    10   7  87 W3        30.05S
DOUGLAS        CLOUDY    14  10  84 NW10      30.06R WCI   1

$$
WYZ021-027>030-104>119-270400-
SOUTHERN WYOMING

CITY           SKY/WX    TMP DP  RH WIND       PRES   REMARKS
EVANSTON       CLOUDY     7   3  84 SW6       30.03R WCI  -3
FORT BRIDGER   CLOUDY    11   8  87 W9        30.04R WCI  -1
ROCK SPRINGS   LGT SNOW  11   8  88 E3        30.02R FOG
DIXON          FLURRIES  11   7  82 S6        30.00R WCI   2
RAWLINS        LGT SNOW   8   4  83 CALM      29.99R FOG
SARATOGA       CLOUDY    10   7  85 NW5       29.97R WCI   2
LARAMIE        LGT SNOW   6   3  87 N3        29.93R FOG
CHEYENNE       LGT SNOW  12   7  80 NW6       29.98R WCI   3
TORRINGTON     LGT SNOW  17  14  88 NW5       30.08R FOG     WCI  10
PINE BLUFFS    LGT SNOW  14  12  92 W3        30.04R

$$


USA.gov is the U.S. government's official web portal to all federal, state and local government web resources and services.